Voltar ao catálogo

DELTA 2 R/B(1)

AtivoUNKNOWN
NORAD 22097·ROCKET BODY·🇺🇸 United States

Lançado Aug 31, 1992 de Cape Canaveral Space Force Station

Loading…

Próximas Passagens (próximas 24 horas)

TLE

AtualizadoSource: Space-Track

Época: Sep 14, 2026, 20:45 UTC

1 22097U 92057B   26257.86511904  .00000093  00000-0  81220-3 0  9997
2 22097  25.2017 325.5415 0506772 257.0968 272.7393 10.92088344359399

Acompanhe DELTA 2 R/B(1) em tempo real com AllMySat

Download on the App Store